contact:dominique.lefevre@mio.osupytheas.fr, maurice.libes@osupytheas.fr, didier.mallarino@osupytheas.fr
Project:EMSO http://www.emso-fr.org/EMSO-France
Depth: 2436.0 m
Title:EMSO Ligure Ouest : Data MII capteur AQUADOPP
Date,Latitude,Longitude,X_East,Y_North,Z_Up,Amplitude_X,Amplitude_Y,Amplitude_Z,Batterie,SoundSpeed,Heading,Pitch,Roll,Pressure,TIS,Speed,Direction
, degrees North, degrees East, m.s-1, m.s-1,m.s-1, 1, 1, 1, Volt, m.s-1, degree, degree, degree, dbar, degree_C, m.s-1, degree
2020-07-18T00:04:03,42.805,6.029,0.022,0.035,-0.042,104.0,115.0,102.0,13.4,1505.3,325.4,-0.8,1.8,2470.331,13.31,0.041,32.2
2020-07-18T00:07:03,42.805,6.029,-0.023,0.029,-0.048,104.0,116.0,102.0,13.3,1505.3,322.8,-0.7,1.8,2470.275,13.32,0.037,321.6
2020-07-18T00:10:03,42.805,6.029,-0.014,0.028,0.008,106.0,113.0,102.0,13.4,1505.3,326.1,-0.7,1.8,2470.296,13.32,0.031,333.4
2020-07-18T00:13:03,42.805,6.029,0.007,0.022,-0.032,105.0,113.0,101.0,13.4,1505.3,326.3,-0.7,1.8,2470.309,13.33,0.023,17.6
2020-07-18T00:16:03,42.805,6.029,0.0,0.022,-0.041,105.0,114.0,102.0,13.4,1505.3,326.5,-0.7,1.9,2470.318,13.33,0.022,0.0
2020-07-18T00:19:03,42.805,6.029,0.006,0.026,0.014,104.0,114.0,102.0,13.3,1505.3,324.9,-0.7,1.8,2470.32,13.33,0.026,13.0
2020-07-18T00:22:03,42.805,6.029,0.014,0.022,0.0,105.0,114.0,102.0,13.4,1505.3,323.3,-0.7,1.8,2470.292,13.33,0.026,32.5
2020-07-18T00:25:03,42.805,6.029,0.011,0.029,0.007,104.0,115.0,102.0,13.3,1505.3,327.1,-0.7,1.8,2470.328,13.33,0.031,20.8
2020-07-18T00:28:03,42.805,6.029,0.015,0.024,0.016,104.0,115.0,102.0,13.3,1505.3,322.7,-0.7,1.8,2470.283,13.33,0.028,32.0
2020-07-18T00:31:03,42.805,6.029,0.026,0.033,-0.013,105.0,113.0,102.0,13.4,1505.3,325.0,-0.7,1.9,2470.292,13.33,0.042,38.2
2020-07-18T00:34:03,42.805,6.029,0.004,0.034,0.005,106.0,115.0,102.0,13.4,1505.3,325.4,-0.7,1.8,2470.308,13.33,0.034,6.7
2020-07-18T00:37:03,42.805,6.029,0.005,0.017,-0.015,106.0,116.0,101.0,13.4,1505.3,328.5,-0.7,1.8,2470.319,13.33,0.017,16.4
2020-07-18T00:40:03,42.805,6.029,0.004,0.037,0.017,105.0,114.0,101.0,13.4,1505.3,325.7,-0.7,1.9,2470.288,13.33,0.037,6.2
2020-07-18T00:43:03,42.805,6.029,-0.012,0.031,-0.023,104.0,113.0,102.0,13.4,1505.3,324.8,-0.7,1.8,2470.316,13.33,0.033,338.8
2020-07-18T00:46:03,42.805,6.029,-0.009,0.004,0.015,105.0,114.0,102.0,13.4,1505.3,326.8,-0.7,1.8,2470.266,13.33,0.009,294.0
2020-07-18T00:49:03,42.805,6.029,0.03,0.03,0.023,105.0,113.0,102.0,13.4,1505.3,327.3,-0.7,1.8,2470.306,13.33,0.042,45.0
2020-07-18T00:52:03,42.805,6.029,0.002,0.025,-0.006,104.0,115.0,102.0,13.4,1505.3,324.6,-0.7,1.8,2470.257,13.33,0.025,4.6
2020-07-18T00:55:03,42.805,6.029,-0.004,0.052,-0.003,105.0,115.0,101.0,13.3,1505.3,324.9,-0.7,1.9,2470.294,13.33,0.052,355.6
2020-07-18T00:58:03,42.805,6.029,0.008,0.037,-0.006,104.0,116.0,102.0,13.3,1505.3,324.9,-0.7,1.8,2470.293,13.33,0.037,12.2
2020-07-18T01:04:03,42.805,6.029,-0.016,0.039,-0.009,105.0,116.0,103.0,13.4,1505.3,324.7,-0.7,1.8,2470.312,13.31,0.042,337.7
2020-07-18T01:07:04,42.805,6.029,-0.001,0.028,-0.008,103.0,114.0,101.0,13.4,1505.3,327.0,-0.7,1.8,2470.28,13.32,0.028,358.0
2020-07-18T01:10:03,42.805,6.029,0.011,0.024,-0.007,104.0,113.0,101.0,13.4,1505.3,323.2,-0.7,1.8,2470.316,13.32,0.026,24.6
2020-07-18T01:13:03,42.805,6.029,0.008,0.035,0.012,104.0,115.0,102.0,13.4,1505.3,325.7,-0.7,1.8,2470.316,13.33,0.035,12.9
2020-07-18T01:16:03,42.805,6.029,-0.007,0.039,0.011,103.0,115.0,102.0,13.4,1505.3,326.9,-0.7,1.8,2470.314,13.33,0.039,349.8
2020-07-18T01:19:03,42.805,6.029,0.003,0.03,0.0,104.0,114.0,102.0,13.4,1505.3,323.8,-0.7,1.8,2470.268,13.33,0.03,5.7
2020-07-18T01:22:03,42.805,6.029,0.006,0.009,0.007,105.0,113.0,102.0,13.3,1505.3,325.2,-0.7,1.8,2470.306,13.33,0.01,33.7
2020-07-18T01:25:03,42.805,6.029,-0.003,0.023,-0.015,104.0,114.0,101.0,13.4,1505.3,326.7,-0.7,1.8,2470.264,13.33,0.023,352.6
2020-07-18T01:28:03,42.805,6.029,0.019,0.033,0.008,104.0,114.0,102.0,13.4,1505.3,327.6,-0.7,1.8,2470.285,13.33,0.038,29.9
2020-07-18T01:31:03,42.805,6.029,0.014,0.038,0.02,104.0,112.0,101.0,13.4,1505.3,327.9,-0.7,1.9,2470.326,13.33,0.04,20.2
2020-07-18T01:34:03,42.805,6.029,0.021,0.03,0.01,104.0,113.0,101.0,13.3,1505.3,327.5,-0.7,1.8,2470.352,13.33,0.036,35.0
2020-07-18T01:37:03,42.805,6.029,-0.029,0.028,-0.016,104.0,113.0,102.0,13.4,1505.3,326.3,-0.7,1.8,2470.298,13.33,0.04,314.0
2020-07-18T01:40:03,42.805,6.029,0.003,0.011,0.006,103.0,113.0,101.0,13.3,1505.3,325.9,-0.7,1.8,2470.314,13.33,0.011,15.3
2020-07-18T01:43:03,42.805,6.029,-0.007,0.024,-0.015,105.0,112.0,102.0,13.4,1505.3,323.5,-0.7,1.8,2470.285,13.33,0.025,343.7
2020-07-18T01:46:03,42.805,6.029,0.0,0.025,-0.016,104.0,113.0,102.0,13.4,1505.3,325.1,-0.7,1.8,2470.292,13.33,0.025,0.0
2020-07-18T01:49:03,42.805,6.029,0.008,0.016,-0.012,104.0,112.0,102.0,13.4,1505.3,326.8,-0.7,1.8,2470.303,13.33,0.017,26.6
2020-07-18T01:52:03,42.805,6.029,-0.018,0.032,0.01,104.0,113.0,101.0,13.4,1505.3,325.5,-0.7,1.9,2470.299,13.33,0.036,330.6
2020-07-18T01:55:03,42.805,6.029,0.019,0.032,-0.011,104.0,113.0,101.0,13.4,1505.3,322.7,-0.7,1.8,2470.29,13.33,0.037,30.7
2020-07-18T01:58:03,42.805,6.029,0.008,0.036,-0.01,103.0,113.0,102.0,13.4,1505.3,324.2,-0.7,1.8,2470.309,13.33,0.036,12.5
2020-07-18T02:04:03,42.805,6.029,-0.015,0.013,-0.019,104.0,113.0,101.0,13.4,1505.3,323.5,-0.7,1.9,2470.379,13.31,0.019,310.9
2020-07-18T02:07:03,42.805,6.029,-0.009,0.043,0.013,104.0,114.0,102.0,13.3,1505.3,325.0,-0.7,1.8,2470.339,13.32,0.043,348.2
2020-07-18T02:10:03,42.805,6.029,-0.006,0.023,-0.007,103.0,111.0,101.0,13.4,1505.3,327.5,-0.7,1.8,2470.319,13.32,0.023,345.4
2020-07-18T02:13:03,42.805,6.029,0.014,0.026,-0.025,104.0,114.0,102.0,13.3,1505.3,326.3,-0.7,1.8,2470.347,13.33,0.029,28.3
2020-07-18T02:16:03,42.805,6.029,-0.011,0.036,0.011,103.0,112.0,101.0,13.3,1505.3,327.8,-0.7,1.8,2470.322,13.33,0.037,343.0
2020-07-18T02:19:03,42.805,6.029,-0.008,0.009,-0.023,103.0,111.0,102.0,13.4,1505.3,325.3,-0.7,1.8,2470.344,13.33,0.012,318.4
2020-07-18T02:22:03,42.805,6.029,-0.017,0.036,-0.012,104.0,113.0,101.0,13.3,1505.3,327.9,-0.7,1.8,2470.355,13.33,0.039,334.7
2020-07-18T02:25:03,42.805,6.029,0.004,0.031,0.018,104.0,113.0,101.0,13.4,1505.3,327.3,-0.7,1.9,2470.331,13.33,0.031,7.3
2020-07-18T02:28:03,42.805,6.029,-0.021,0.029,-0.036,103.0,114.0,102.0,13.3,1505.3,328.3,-0.7,1.8,2470.321,13.33,0.035,324.1
2020-07-18T02:34:03,42.805,6.029,-0.011,0.012,0.009,103.0,112.0,101.0,13.4,1505.3,325.4,-0.7,1.8,2470.388,13.31,0.016,317.5
2020-07-18T02:37:03,42.805,6.029,-0.013,0.034,-0.033,103.0,112.0,102.0,13.4,1505.3,325.6,-0.8,1.8,2470.385,13.32,0.036,339.1
2020-07-18T02:40:03,42.805,6.029,0.005,0.033,0.014,104.0,109.0,102.0,13.4,1505.3,324.1,-0.7,1.8,2470.352,13.32,0.033,8.6
2020-07-18T02:43:03,42.805,6.029,-0.001,0.033,0.009,104.0,111.0,101.0,13.3,1505.3,326.9,-0.7,1.8,2470.349,13.33,0.033,358.3
2020-07-18T02:46:03,42.805,6.029,0.003,0.023,-0.008,104.0,111.0,101.0,13.4,1505.3,325.3,-0.7,1.9,2470.357,13.33,0.023,7.4
2020-07-18T02:49:03,42.805,6.029,-0.015,0.017,-0.012,104.0,112.0,101.0,13.3,1505.3,324.7,-0.7,1.8,2470.361,13.33,0.022,318.6
2020-07-18T02:52:03,42.805,6.029,-0.011,0.016,-0.003,104.0,112.0,102.0,13.3,1505.3,328.0,-0.7,1.8,2470.342,13.33,0.019,325.5
2020-07-18T02:55:03,42.805,6.029,0.017,0.038,-0.011,106.0,111.0,101.0,13.4,1505.3,327.8,-0.7,1.8,2470.338,13.33,0.041,24.1
2020-07-18T02:58:03,42.805,6.029,-0.007,0.022,0.0,104.0,112.0,101.0,13.4,1505.3,327.7,-0.7,1.8,2470.375,13.33,0.023,342.4
2020-07-18T03:04:03,42.805,6.029,0.003,0.023,0.022,105.0,111.0,101.0,13.4,1505.3,324.9,-0.7,1.8,2470.405,13.31,0.023,7.4
2020-07-18T03:07:03,42.805,6.029,-0.02,0.031,-0.022,104.0,110.0,102.0,13.4,1505.3,326.5,-0.7,1.8,2470.374,13.32,0.036,327.2
2020-07-18T03:10:03,42.805,6.029,0.017,0.025,-0.013,104.0,113.0,101.0,13.4,1505.3,327.9,-0.8,1.8,2470.323,13.32,0.03,34.2
2020-07-18T03:13:03,42.805,6.029,-0.001,0.029,0.0,105.0,112.0,100.0,13.3,1505.3,324.1,-0.7,1.9,2470.389,13.33,0.029,358.0
2020-07-18T03:16:03,42.805,6.029,-0.011,0.033,-0.005,102.0,112.0,102.0,13.4,1505.3,326.8,-0.7,1.8,2470.411,13.33,0.034,341.6
2020-07-18T03:19:03,42.805,6.029,0.0,0.03,-0.019,104.0,110.0,101.0,13.4,1505.3,325.7,-0.7,1.9,2470.339,13.33,0.03,0.0
2020-07-18T03:22:03,42.805,6.029,-0.013,0.022,-0.028,103.0,109.0,101.0,13.4,1505.3,325.8,-0.6,1.8,2470.366,13.33,0.025,329.4
2020-07-18T03:25:03,42.805,6.029,-0.008,0.032,-0.019,103.0,111.0,102.0,13.4,1505.3,326.6,-0.7,1.8,2470.4,13.33,0.032,346.0
2020-07-18T03:28:03,42.805,6.029,-0.009,0.062,-0.004,104.0,110.0,101.0,13.4,1505.3,327.6,-0.7,1.8,2470.358,13.33,0.062,351.7
2020-07-18T03:31:03,42.805,6.029,0.007,0.022,-0.008,104.0,111.0,101.0,13.4,1505.3,325.9,-0.7,1.8,2470.348,13.33,0.023,17.6
2020-07-18T03:34:03,42.805,6.029,0.008,0.032,0.0,105.0,110.0,101.0,13.4,1505.3,325.1,-0.7,1.8,2470.349,13.33,0.032,14.0
2020-07-18T03:37:03,42.805,6.029,0.0,0.034,0.018,103.0,109.0,102.0,13.3,1505.3,324.6,-0.7,1.9,2470.376,13.33,0.034,0.0
2020-07-18T03:40:03,42.805,6.029,0.02,0.041,0.002,104.0,109.0,101.0,13.4,1505.3,324.8,-0.7,1.8,2470.368,13.33,0.045,26.0
2020-07-18T03:43:03,42.805,6.029,-0.008,0.045,-0.006,104.0,110.0,102.0,13.4,1505.3,326.0,-0.7,1.8,2470.346,13.33,0.045,349.9
2020-07-18T03:46:03,42.805,6.029,0.013,0.037,0.015,104.0,108.0,102.0,13.4,1505.3,324.5,-0.7,1.8,2470.341,13.33,0.039,19.4
2020-07-18T03:49:03,42.805,6.029,-0.012,0.012,-0.026,106.0,109.0,101.0,13.4,1505.3,324.7,-0.7,1.8,2470.358,13.33,0.016,315.0
2020-07-18T03:52:03,42.805,6.029,-0.024,0.031,0.018,103.0,110.0,101.0,13.3,1505.3,324.8,-0.7,1.8,2470.369,13.33,0.039,322.3
2020-07-18T03:55:03,42.805,6.029,0.014,0.036,-0.045,104.0,110.0,102.0,13.4,1505.3,323.3,-0.7,1.9,2470.391,13.33,0.038,21.2
2020-07-18T03:58:03,42.805,6.029,-0.018,0.031,0.0,106.0,109.0,102.0,13.4,1505.3,325.8,-0.7,1.8,2470.328,13.33,0.035,329.9
2020-07-18T04:01:03,42.805,6.029,0.016,0.039,-0.022,103.0,110.0,103.0,13.4,1505.3,325.4,-0.7,1.9,2470.374,13.33,0.042,22.3
2020-07-18T04:04:03,42.805,6.029,-0.02,0.018,-0.003,104.0,109.0,101.0,13.4,1505.3,327.8,-0.7,1.8,2470.365,13.33,0.026,312.0
2020-07-18T04:07:03,42.805,6.029,-0.013,0.037,0.007,103.0,110.0,101.0,13.4,1505.3,326.7,-0.7,1.8,2470.394,13.33,0.039,340.6
2020-07-18T04:10:03,42.805,6.029,-0.012,0.042,0.003,103.0,108.0,101.0,13.4,1505.3,327.1,-0.7,1.8,2470.373,13.33,0.043,344.1
2020-07-18T04:13:03,42.805,6.029,-0.012,0.01,-0.009,104.0,109.0,101.0,13.4,1505.3,324.0,-0.7,1.8,2470.359,13.33,0.015,309.8
2020-07-18T04:16:03,42.805,6.029,-0.013,0.028,-0.018,105.0,108.0,101.0,13.4,1505.3,326.1,-0.7,1.8,2470.361,13.33,0.03,335.1
2020-07-18T04:19:03,42.805,6.029,-0.009,0.012,-0.03,104.0,110.0,102.0,13.3,1505.3,327.4,-0.7,1.8,2470.367,13.33,0.015,323.1
2020-07-18T04:22:03,42.805,6.029,-0.012,0.035,-0.023,103.0,108.0,102.0,13.4,1505.3,323.7,-0.7,1.9,2470.381,13.33,0.037,341.1
2020-07-18T04:25:03,42.805,6.029,0.002,0.037,-0.006,104.0,109.0,101.0,13.4,1505.3,322.7,-0.7,1.9,2470.329,13.33,0.037,3.1
2020-07-18T04:28:03,42.805,6.029,-0.007,0.021,0.006,105.0,110.0,101.0,13.3,1505.3,322.8,-0.7,1.8,2470.405,13.33,0.022,341.6
2020-07-18T04:31:03,42.805,6.029,-0.019,0.044,-0.035,103.0,109.0,101.0,13.4,1505.3,326.2,-0.7,1.8,2470.394,13.33,0.047,336.6
2020-07-18T04:34:03,42.805,6.029,-0.002,0.031,-0.015,104.0,108.0,101.0,13.4,1505.3,327.9,-0.7,1.8,2470.406,13.33,0.031,356.3
2020-07-18T04:37:03,42.805,6.029,-0.013,0.041,-0.023,104.0,111.0,101.0,13.4,1505.3,325.2,-0.7,1.8,2470.35,13.33,0.043,342.4
2020-07-18T04:40:03,42.805,6.029,0.017,0.008,-0.021,105.0,108.0,101.0,13.4,1505.3,326.6,-0.7,1.9,2470.383,13.33,0.018,64.8
2020-07-18T04:43:03,42.805,6.029,0.0,0.028,-0.003,105.0,108.0,101.0,13.4,1505.3,328.1,-0.7,1.8,2470.382,13.33,0.028,0.0
2020-07-18T04:49:03,42.805,6.029,-0.013,0.022,-0.006,103.0,109.0,102.0,13.3,1505.3,325.4,-0.7,1.8,2470.416,13.31,0.025,329.4
2020-07-18T04:52:03,42.805,6.029,-0.014,0.034,-0.024,104.0,109.0,102.0,13.4,1505.3,327.2,-0.7,1.8,2470.394,13.32,0.036,337.6
2020-07-18T04:55:03,42.805,6.029,-0.016,0.017,-0.012,104.0,111.0,103.0,13.4,1505.3,326.1,-0.7,1.8,2470.397,13.32,0.023,316.7
2020-07-18T04:58:03,42.805,6.029,-0.024,0.043,0.003,104.0,109.0,101.0,13.4,1505.3,327.0,-0.7,1.8,2470.384,13.33,0.049,330.8
2020-07-18T05:04:03,42.805,6.029,-0.01,0.031,0.003,104.0,110.0,102.0,13.3,1505.3,326.2,-0.8,1.8,2470.44,13.31,0.032,342.1
2020-07-18T05:07:03,42.805,6.029,-0.021,0.037,0.01,104.0,112.0,101.0,13.4,1505.3,323.4,-0.7,1.8,2470.424,13.32,0.042,330.4
2020-07-18T05:10:03,42.805,6.029,-0.022,0.035,-0.022,103.0,109.0,101.0,13.4,1505.3,327.0,-0.7,1.8,2470.454,13.32,0.041,327.8
2020-07-18T05:13:03,42.805,6.029,-0.037,0.03,-0.049,104.0,110.0,101.0,13.4,1505.3,324.2,-0.7,1.8,2470.372,13.32,0.047,309.0
2020-07-18T05:16:03,42.805,6.029,-0.012,0.045,-0.005,104.0,110.0,102.0,13.4,1505.3,324.9,-0.7,1.8,2470.431,13.33,0.046,345.1
2020-07-18T05:19:03,42.805,6.029,-0.011,0.028,-0.013,104.0,112.0,101.0,13.4,1505.3,324.3,-0.7,1.8,2470.399,13.33,0.03,338.6
2020-07-18T05:22:03,42.805,6.029,0.008,0.037,0.023,103.0,111.0,102.0,13.3,1505.3,324.4,-0.7,1.8,2470.383,13.33,0.037,12.2
2020-07-18T05:25:03,42.805,6.029,-0.022,0.029,-0.046,103.0,110.0,102.0,13.4,1505.3,326.1,-0.7,1.8,2470.434,13.33,0.036,322.8
2020-07-18T05:28:03,42.805,6.029,-0.013,0.03,-0.009,103.0,110.0,100.0,13.4,1505.3,323.9,-0.7,1.8,2470.429,13.33,0.032,336.6
2020-07-18T05:31:03,42.805,6.029,-0.012,0.049,-0.002,103.0,113.0,102.0,13.3,1505.3,327.7,-0.7,1.8,2470.373,13.33,0.05,346.2
2020-07-18T05:34:03,42.805,6.029,-0.039,0.036,-0.04,105.0,109.0,101.0,13.4,1505.3,325.3,-0.7,1.9,2470.385,13.33,0.053,312.7
2020-07-18T05:37:03,42.805,6.029,0.022,0.029,0.003,104.0,109.0,100.0,13.3,1505.3,323.9,-0.7,1.8,2470.356,13.33,0.036,37.2
2020-07-18T05:40:03,42.805,6.029,-0.012,0.048,-0.013,105.0,108.0,102.0,13.3,1505.3,326.0,-0.7,1.8,2470.399,13.33,0.049,346.0
2020-07-18T05:43:03,42.805,6.029,-0.03,0.024,0.004,103.0,109.0,102.0,13.4,1505.3,326.7,-0.7,1.8,2470.389,13.33,0.038,308.7
2020-07-18T05:46:03,42.805,6.029,-0.012,0.036,-0.01,104.0,109.0,101.0,13.4,1505.3,323.7,-0.7,1.8,2470.396,13.33,0.037,341.6
2020-07-18T05:49:03,42.805,6.029,-0.019,0.039,0.0,104.0,111.0,102.0,13.4,1505.3,327.5,-0.7,1.8,2470.365,13.33,0.043,334.0
2020-07-18T05:52:03,42.805,6.029,-0.004,0.034,-0.012,104.0,111.0,101.0,13.4,1505.3,326.6,-0.7,1.8,2470.381,13.33,0.034,353.3
2020-07-18T05:55:03,42.805,6.029,-0.007,0.027,-0.015,102.0,112.0,102.0,13.4,1505.3,323.6,-0.7,1.8,2470.399,13.33,0.027,345.5
2020-07-18T05:58:03,42.805,6.029,0.01,0.035,0.019,104.0,110.0,101.0,13.4,1505.3,328.2,-0.7,1.8,2470.379,13.33,0.036,15.9
2020-07-18T06:04:03,42.805,6.029,0.002,0.025,0.018,103.0,112.0,101.0,13.4,1505.3,324.7,-0.7,1.8,2470.375,13.31,0.025,4.6
2020-07-18T06:07:03,42.805,6.029,-0.019,0.04,0.004,103.0,109.0,102.0,13.4,1505.3,323.4,-0.7,1.8,2470.422,13.32,0.044,334.6
2020-07-18T06:10:03,42.805,6.029,-0.015,0.034,-0.006,104.0,108.0,100.0,13.3,1505.3,325.6,-0.7,1.9,2470.394,13.32,0.037,336.2
2020-07-18T06:13:03,42.805,6.029,-0.013,0.027,-0.012,105.0,112.0,100.0,13.4,1505.3,325.9,-0.7,1.8,2470.455,13.32,0.029,334.3
2020-07-18T06:16:03,42.805,6.029,0.009,0.035,0.012,104.0,111.0,101.0,13.4,1505.3,326.4,-0.7,1.9,2470.38,13.33,0.036,14.4
2020-07-18T06:19:03,42.805,6.029,-0.01,0.018,-0.013,104.0,111.0,101.0,13.4,1505.3,324.6,-0.7,1.8,2470.39,13.33,0.02,330.9
2020-07-18T06:22:03,42.805,6.029,-0.016,0.031,-0.02,104.0,110.0,102.0,13.3,1505.3,323.1,-0.7,1.9,2470.361,13.33,0.034,332.7
2020-07-18T06:25:03,42.805,6.029,-0.016,0.04,-0.015,104.0,110.0,100.0,13.4,1505.3,324.6,-0.7,1.8,2470.37,13.33,0.043,338.2
2020-07-18T06:28:03,42.805,6.029,-0.007,0.018,-0.037,103.0,110.0,102.0,13.3,1505.3,323.8,-0.7,1.8,2470.389,13.33,0.019,338.8
2020-07-18T06:31:03,42.805,6.029,-0.022,0.044,0.018,104.0,109.0,101.0,13.4,1505.3,327.0,-0.7,1.9,2470.363,13.33,0.049,333.4
2020-07-18T06:34:03,42.805,6.029,-0.017,0.035,0.004,105.0,110.0,101.0,13.4,1505.3,326.4,-0.7,1.9,2470.396,13.33,0.038,334.1
2020-07-18T06:37:03,42.805,6.029,-0.017,0.04,-0.01,105.0,108.0,101.0,13.3,1505.3,323.6,-0.7,1.8,2470.385,13.33,0.043,337.0
2020-07-18T06:40:03,42.805,6.029,0.014,0.024,-0.015,104.0,109.0,102.0,13.3,1505.3,326.4,-0.7,1.9,2470.4,13.33,0.027,30.3
2020-07-18T06:43:03,42.805,6.029,-0.011,0.037,0.0,105.0,108.0,103.0,13.4,1505.3,323.4,-0.7,1.8,2470.376,13.33,0.038,343.4
2020-07-18T06:46:03,42.805,6.029,-0.003,0.037,-0.037,102.0,109.0,101.0,13.3,1505.3,324.1,-0.7,1.8,2470.395,13.33,0.037,355.4
2020-07-18T06:49:03,42.805,6.029,-0.019,0.041,0.001,104.0,110.0,102.0,13.4,1505.3,323.5,-0.7,1.9,2470.367,13.33,0.045,335.1
2020-07-18T06:52:03,42.805,6.029,-0.022,0.047,0.004,102.0,110.0,102.0,13.4,1505.3,327.0,-0.7,1.9,2470.357,13.33,0.051,334.9
2020-07-18T06:55:03,42.805,6.029,-0.023,0.028,-0.029,104.0,109.0,101.0,13.4,1505.3,327.1,-0.7,1.9,2470.343,13.33,0.036,320.6
2020-07-18T06:58:03,42.805,6.029,-0.005,0.031,0.003,104.0,108.0,101.0,13.4,1505.3,323.1,-0.8,1.8,2470.346,13.33,0.031,350.8
2020-07-18T07:04:03,42.805,6.029,-0.011,0.04,-0.02,104.0,108.0,101.0,13.4,1505.3,324.6,-0.7,1.8,2470.39,13.31,0.041,344.6
2020-07-18T07:07:03,42.805,6.029,0.006,0.007,0.006,102.0,109.0,100.0,13.3,1505.3,327.8,-0.8,1.8,2470.412,13.32,0.009,40.6
2020-07-18T07:10:03,42.805,6.029,0.004,0.027,-0.03,104.0,109.0,101.0,13.4,1505.3,326.3,-0.7,1.9,2470.343,13.32,0.027,8.4
2020-07-18T07:13:03,42.805,6.029,-0.02,0.012,-0.014,106.0,107.0,101.0,13.4,1505.3,323.3,-0.7,1.8,2470.369,13.32,0.023,301.0
2020-07-18T07:16:03,42.805,6.029,0.0,0.033,0.036,104.0,109.0,103.0,13.4,1505.3,324.4,-0.7,1.9,2470.382,13.33,0.033,0.0
2020-07-18T07:19:03,42.805,6.029,-0.011,0.016,-0.008,103.0,110.0,101.0,13.3,1505.3,328.1,-0.7,1.8,2470.395,13.33,0.019,325.5
2020-07-18T07:22:03,42.805,6.029,-0.009,0.018,-0.019,104.0,109.0,101.0,13.4,1505.3,326.8,-0.7,1.8,2470.379,13.33,0.02,333.4
2020-07-18T07:25:03,42.805,6.029,0.007,0.017,0.036,103.0,108.0,101.0,13.3,1505.3,325.7,-0.7,1.8,2470.357,13.33,0.018,22.4
2020-07-18T07:28:03,42.805,6.029,-0.006,0.028,0.008,104.0,108.0,101.0,13.3,1505.3,323.4,-0.7,1.8,2470.332,13.33,0.028,347.9
2020-07-18T07:31:03,42.805,6.029,0.0,0.032,-0.005,103.0,108.0,102.0,13.4,1505.3,325.7,-0.7,1.9,2470.357,13.33,0.032,0.0
2020-07-18T07:34:03,42.805,6.029,-0.018,0.033,-0.011,103.0,108.0,102.0,13.4,1505.3,328.5,-0.7,1.8,2470.368,13.33,0.037,331.4
2020-07-18T07:37:03,42.805,6.029,0.026,0.014,-0.008,105.0,110.0,101.0,13.3,1505.3,327.5,-0.7,1.8,2470.329,13.33,0.029,61.7
2020-07-18T07:40:03,42.805,6.029,0.002,0.015,-0.008,104.0,110.0,102.0,13.4,1505.3,325.1,-0.7,1.8,2470.354,13.33,0.015,7.6
2020-07-18T07:43:03,42.805,6.029,-0.003,0.029,-0.033,103.0,108.0,102.0,13.4,1505.3,324.8,-0.7,1.8,2470.346,13.33,0.029,354.1
2020-07-18T07:46:03,42.805,6.029,-0.005,0.013,-0.009,105.0,110.0,102.0,13.4,1505.3,324.7,-0.7,1.9,2470.371,13.33,0.013,339.0
2020-07-18T07:49:03,42.805,6.029,0.007,0.008,-0.022,103.0,110.0,102.0,13.4,1505.3,325.3,-0.7,1.8,2470.329,13.33,0.01,41.2
2020-07-18T07:52:03,42.805,6.029,0.012,0.021,-0.002,103.0,110.0,102.0,13.3,1505.3,328.0,-0.7,1.8,2470.321,13.33,0.024,29.7
2020-07-18T07:55:03,42.805,6.029,-0.002,0.022,0.002,104.0,110.0,102.0,13.3,1505.3,325.4,-0.7,1.8,2470.351,13.33,0.022,354.8
2020-07-18T07:58:03,42.805,6.029,-0.017,0.017,0.002,104.0,110.0,100.0,13.4,1505.3,328.3,-0.7,1.8,2470.318,13.33,0.024,315.0
2020-07-18T08:04:03,42.805,6.029,-0.021,0.039,0.011,105.0,110.0,101.0,13.4,1505.3,327.9,-0.8,1.9,2470.369,13.31,0.044,331.7
2020-07-18T08:07:03,42.805,6.029,-0.039,0.019,-0.032,103.0,108.0,102.0,13.3,1505.3,324.1,-0.7,1.8,2470.338,13.32,0.043,296.0
2020-07-18T08:10:03,42.805,6.029,-0.015,0.042,-0.003,104.0,107.0,101.0,13.4,1505.3,324.9,-0.7,1.8,2470.369,13.32,0.044,340.4
2020-07-18T08:13:03,42.805,6.029,-0.04,0.03,-0.042,105.0,109.0,102.0,13.3,1505.3,326.1,-0.7,1.9,2470.318,13.33,0.05,306.9
2020-07-18T08:16:03,42.805,6.029,-0.009,0.032,-0.008,104.0,111.0,102.0,13.4,1505.3,324.7,-0.7,1.8,2470.328,13.33,0.033,344.3
2020-07-18T08:19:03,42.805,6.029,0.001,0.022,0.0,104.0,106.0,101.0,13.4,1505.3,322.8,-0.7,1.8,2470.316,13.33,0.022,2.6
2020-07-18T08:22:03,42.805,6.029,-0.005,0.008,-0.007,104.0,109.0,101.0,13.4,1505.3,324.8,-0.7,1.8,2470.378,13.33,0.009,328.0
2020-07-18T08:25:03,42.805,6.029,-0.005,0.025,0.003,103.0,109.0,101.0,13.4,1505.3,328.1,-0.7,1.8,2470.302,13.33,0.025,348.7
2020-07-18T08:28:03,42.805,6.029,-0.013,0.021,0.004,104.0,110.0,101.0,13.4,1505.3,325.4,-0.7,1.8,2470.329,13.33,0.024,328.2
2020-07-18T08:31:03,42.805,6.029,0.007,0.029,0.027,103.0,109.0,101.0,13.3,1505.3,326.7,-0.7,1.8,2470.33,13.33,0.029,13.6
2020-07-18T08:34:03,42.805,6.029,-0.003,0.035,-0.006,105.0,108.0,102.0,13.4,1505.3,324.4,-0.7,1.8,2470.321,13.33,0.035,355.1
2020-07-18T08:37:03,42.805,6.029,-0.022,0.026,-0.006,104.0,112.0,101.0,13.4,1505.3,324.9,-0.7,1.8,2470.302,13.33,0.034,319.8
2020-07-18T08:40:03,42.805,6.029,0.019,0.017,0.017,103.0,107.0,101.0,13.4,1505.3,326.6,-0.7,1.8,2470.316,13.33,0.025,48.2
2020-07-18T08:43:03,42.805,6.029,0.004,0.025,-0.028,103.0,110.0,101.0,13.3,1505.3,325.3,-0.7,1.9,2470.327,13.33,0.025,9.1
2020-07-18T08:46:03,42.805,6.029,-0.019,0.032,-0.039,104.0,109.0,103.0,13.3,1505.3,322.7,-0.7,1.8,2470.35,13.33,0.037,329.3
2020-07-18T08:49:03,42.805,6.029,0.0,0.035,-0.015,103.0,108.0,102.0,13.3,1505.3,325.2,-0.7,1.9,2470.315,13.33,0.035,0.0
2020-07-18T08:52:03,42.805,6.029,-0.007,0.023,0.001,104.0,109.0,101.0,13.3,1505.3,324.8,-0.8,1.8,2470.312,13.33,0.024,343.1
2020-07-18T08:55:03,42.805,6.029,0.014,0.003,-0.022,103.0,109.0,101.0,13.4,1505.3,325.7,-0.7,1.8,2470.31,13.33,0.014,77.9
2020-07-18T08:58:03,42.805,6.029,0.0,0.021,0.003,105.0,107.0,100.0,13.4,1505.3,325.6,-0.7,1.8,2470.244,13.33,0.021,0.0
2020-07-18T09:04:03,42.805,6.029,-0.031,-0.003,-0.03,104.0,109.0,101.0,13.4,1505.3,327.7,-0.7,1.9,2470.33,13.31,0.031,264.5
2020-07-18T09:07:03,42.805,6.029,-0.005,0.043,-0.022,103.0,109.0,102.0,13.4,1505.3,323.8,-0.7,1.8,2470.312,13.32,0.043,353.4
2020-07-18T09:10:03,42.805,6.029,-0.04,0.029,-0.045,106.0,109.0,102.0,13.4,1505.3,326.6,-0.7,1.8,2470.296,13.33,0.049,305.9
2020-07-18T09:13:03,42.805,6.029,-0.019,0.019,0.003,103.0,109.0,100.0,13.4,1505.3,326.8,-0.7,1.8,2470.304,13.33,0.026,315.0
2020-07-18T09:16:03,42.805,6.029,-0.003,-0.001,-0.018,104.0,109.0,101.0,13.3,1505.3,328.4,-0.7,1.8,2470.301,13.33,0.003,251.6
2020-07-18T09:19:03,42.805,6.029,-0.026,0.006,-0.023,105.0,108.0,101.0,13.4,1505.3,323.9,-0.7,1.9,2470.297,13.33,0.026,283.0
2020-07-18T09:22:03,42.805,6.029,0.001,0.012,-0.01,104.0,109.0,101.0,13.4,1505.3,324.5,-0.7,1.8,2470.292,13.33,0.012,4.8
2020-07-18T09:25:03,42.805,6.029,-0.009,0.025,-0.019,104.0,110.0,102.0,13.4,1505.3,324.3,-0.7,1.8,2470.299,13.33,0.026,340.2
2020-07-18T09:28:03,42.805,6.029,-0.026,0.02,-0.012,104.0,107.0,102.0,13.4,1505.3,325.2,-0.7,1.9,2470.295,13.33,0.032,307.6
2020-07-18T09:31:03,42.805,6.029,-0.033,0.031,-0.048,102.0,108.0,100.0,13.4,1505.3,326.8,-0.7,1.9,2470.3,13.33,0.045,313.2
2020-07-18T09:34:03,42.805,6.029,-0.02,0.029,-0.019,103.0,107.0,102.0,13.4,1505.3,323.6,-0.7,1.8,2470.287,13.33,0.035,325.4
2020-07-18T09:37:03,42.805,6.029,-0.003,0.037,-0.006,104.0,107.0,101.0,13.4,1505.3,327.5,-0.7,1.8,2470.287,13.33,0.037,355.4
2020-07-18T09:40:03,42.805,6.029,-0.029,0.024,-0.034,104.0,107.0,102.0,13.4,1505.3,327.1,-0.7,1.8,2470.302,13.33,0.037,309.6
2020-07-18T09:43:03,42.805,6.029,0.001,0.032,-0.003,103.0,110.0,101.0,13.4,1505.3,322.9,-0.7,1.8,2470.269,13.33,0.032,1.8
2020-07-18T09:46:03,42.805,6.029,-0.013,0.024,-0.027,103.0,108.0,101.0,13.3,1505.3,324.8,-0.7,1.9,2470.244,13.33,0.027,331.6
2020-07-18T09:49:03,42.805,6.029,-0.027,0.026,-0.049,104.0,108.0,100.0,13.4,1505.3,324.1,-0.7,1.8,2470.268,13.33,0.037,313.9
2020-07-18T09:52:03,42.805,6.029,-0.017,0.01,-0.032,103.0,109.0,100.0,13.4,1505.3,328.1,-0.7,1.8,2470.286,13.33,0.019,300.5
2020-07-18T09:55:03,42.805,6.029,0.006,0.056,0.015,103.0,111.0,102.0,13.3,1505.3,327.1,-0.7,1.8,2470.293,13.33,0.056,6.1
2020-07-18T09:58:03,42.805,6.029,-0.029,0.036,-0.001,103.0,108.0,101.0,13.4,1505.3,325.1,-0.7,1.8,2470.246,13.33,0.046,321.1
2020-07-18T10:04:03,42.805,6.029,-0.019,0.023,-0.001,105.0,107.0,102.0,13.3,1505.3,323.4,-0.7,1.8,2470.293,13.31,0.029,320.4